Vancouver, WA

7:37 AM PDT on April 23, 2017 (GMT -0700)
Pearson

Weather History for KVUO - March, 2013

Change the Weather History Date:

Friday, March 15, 2013

  Actual Average Record
Temperature  
Mean Temperature 54 °F 48 °F  
Max Temperature 63 °F 57 °F 79 °F (1947)
Min Temperature 44 °F 39 °F 18 °F (1906)
Degree Days  
Heating Degree Days 11    
Month to date heating degree days 263  
Since 1 July heating degree days 3295  
Cooling Degree Days 0    
Month to date cooling degree days 0  
Year to date cooling degree days 0  
Growing Degree Days 5 (Base 50)    
Moisture  
Dew Point 46 °F    
Average Humidity 69    
Maximum Humidity 86    
Minimum Humidity 52    
Precipitation  
Precipitation T in 0.12 in 1.43 in (1967)
Month to date precipitation 0.50 1.76  
Year to date precipitation 5.06 11.29  
Snow  
Snow 0.00 in - - ()
Month to date snowfall 0.0  
Snow Depth 0.00 in    
Sea Level Pressure  
Sea Level Pressure 30.21 in    
Wind  
Wind Speed 3 mph (East)    
Max Wind Speed 9 mph    
Max Gust Speed 13 mph    
Visibility 10 miles    
Events Rain    
T = Trace of Precipitation, MM = Missing Value Source: NWS Daily Summary

Daily Weather History Graph

Daily Weather History Graph

Search for Another Location

Airport or City:

Trip Planner

Search our weather history database for the weather conditions in past years. The results will help you decide how hot, cold, wet, or windy it might be!

Date:

Astronomy

Mar. 15, 2013 Rise Set
Actual Time 7:22 AM PDT 7:17 PM PDT
Civil Twilight 6:53 AM PDT 7:46 PM PDT
Nautical Twilight 6:18 AM PDT 8:21 PM PDT
Astronomical Twilight 5:43 AM PDT 8:56 PM PDT
Moon 9:02 AM PDT (3/15) 11:51 PM PDT (3/15)
Length of Visible Light 12h 53m
Length of Day
11h 54m
Waxing Crescent, 16% of the Moon is Illuminated
Mar 15
Waxing Crescent
Mar 19
First Quarter
Mar 27
Full
Apr 2
Last Quarter
Apr 10
New

Hourly Weather History & Observations

Time (PDT) Temp. Dew Point Humidity Pressure Visibility Wind Dir Wind Speed Gust Speed Precip Events Conditions
12:53 AM 54.0 °F 45.0 °F 72% 30.21 in 10.0 mi South 4.6 mph - N/A   Overcast
1:53 AM 54.0 °F 46.0 °F 75% 30.21 in 10.0 mi Variable 3.5 mph - N/A   Scattered Clouds
2:26 AM 53.6 °F 46.4 °F 77% 30.22 in 10.0 mi East 4.6 mph - N/A   Overcast
2:53 AM 54.0 °F 46.0 °F 75% 30.22 in 10.0 mi ESE 5.8 mph - N/A   Overcast
3:53 AM 53.1 °F 46.0 °F 77% 30.21 in 10.0 mi Calm Calm - N/A   Scattered Clouds
4:10 AM 53.6 °F 46.4 °F 77% 30.20 in 10.0 mi ESE 4.6 mph - N/A   Mostly Cloudy
4:53 AM 53.1 °F 46.0 °F 77% 30.21 in 10.0 mi Calm Calm - N/A   Overcast
5:53 AM 53.1 °F 46.0 °F 77% 30.22 in 10.0 mi Calm Calm - N/A   Overcast
6:53 AM 53.1 °F 46.0 °F 77% 30.22 in 10.0 mi Calm Calm - N/A   Overcast
7:53 AM 53.1 °F 46.0 °F 77% 30.23 in 10.0 mi Calm Calm - N/A   Overcast
8:24 AM 53.6 °F 46.4 °F 77% 30.23 in 10.0 mi ESE 3.5 mph - N/A   Overcast
8:53 AM 54.0 °F 46.9 °F 77% 30.24 in 10.0 mi ESE 4.6 mph - N/A   Overcast
9:53 AM 55.0 °F 48.0 °F 77% 30.23 in 10.0 mi ESE 6.9 mph - N/A   Mostly Cloudy
10:36 AM 55.4 °F 46.4 °F 72% 30.23 in 10.0 mi East 3.5 mph - N/A   Mostly Cloudy
10:53 AM 55.9 °F 48.0 °F 75% 30.23 in 10.0 mi East 3.5 mph - N/A   Overcast
11:42 AM 57.2 °F 46.4 °F 67% 30.23 in 10.0 mi Calm Calm - N/A   Overcast
11:53 AM 57.9 °F 46.9 °F 67% 30.24 in 10.0 mi Calm Calm - N/A   Mostly Cloudy
12:53 PM 61.0 °F 46.9 °F 60% 30.23 in 10.0 mi Variable 4.6 mph - N/A   Scattered Clouds
1:53 PM 61.0 °F 45.0 °F 56% 30.22 in 10.0 mi Calm Calm - N/A   Mostly Cloudy
2:53 PM 62.1 °F 45.0 °F 53% 30.20 in 10.0 mi Calm Calm - N/A   Scattered Clouds
3:53 PM 62.1 °F 44.1 °F 52% 30.18 in 10.0 mi WNW 4.6 mph - N/A   Mostly Cloudy
4:53 PM 62.1 °F 45.0 °F 53% 30.17 in 10.0 mi West 8.1 mph - N/A   Overcast
5:53 PM 61.0 °F 44.1 °F 54% 30.17 in 10.0 mi West 6.9 mph - N/A   Overcast
6:53 PM 60.1 °F 44.1 °F 55% 30.17 in 10.0 mi NW 5.8 mph - N/A   Overcast
7:53 PM 57.9 °F 46.0 °F 65% 30.17 in 10.0 mi NNW 4.6 mph - 0.00 in Rain Light Rain
8:53 PM 54.0 °F 48.0 °F 80% 30.17 in 10.0 mi WNW 5.8 mph - 0.00 in   Mostly Cloudy
9:53 PM 52.0 °F 46.0 °F 80% 30.18 in 10.0 mi North 4.6 mph - N/A   Partly Cloudy
10:53 PM 48.0 °F 44.1 °F 86% 30.18 in 10.0 mi Calm Calm - N/A   Partly Cloudy
11:53 PM 48.0 °F 45.0 °F 89% 30.18 in 10.0 mi Calm Calm - N/A   Overcast